sat.trackr.live / text

‹ back to catalog

FLOCK 4BE-30

NORAD 60499 · 2024-149AH

PAYLOAD ACTIVE UNKNOWN

§ Identity

Operator
Country
US
Launch date
2024-08-16
Launch site
AFWTR
Launch vehicle
Mass (kg)
RCS (m²)

Purposes: earth_obs

External: N2YO · Heavens-Above · Gunter

§ Orbital elements

Epoch: 2026-06-28T18:05:58.638624Z

Period
92.33 min
Inclination
97.3771°
Eccentricity
0.0005568
Mean motion
15.59578881 rev/d
Perigee alt
385.1 km
Apogee alt
392.6 km
Semi-major
6,767.0 km
B*
1.8635e-3
RAAN
265.6851°
Arg perigee
222.8111°
Mean anomaly
137.2713°
Rev number
10,357

§ Raw data

FLOCK 4BE-301 60499U 24149AH  26179.75415091  .00150626  00000+0  18635-2 0  99992 60499  97.3771 265.6851 0005568 222.8111 137.2713 15.59578881103575

JSON: /api/v1/satellites/60499 · /tle

For live sub-satellite position, see the globe view (requires WebGL).

§ Visibility from observer

Set your observer location to see the next 7 days of passes ≥ 10°. The values pass through the URL so the page stays shareable.

No JS? Fill the form by hand. The geolocation button needs JavaScript.